Content
SEND FEEDBACK

Daily
Averages
Monthly
Summary
United Kingdom

LONDON, ENGLAND


Home > Europe > United Kingdom > England
Elevation: 203 feet     Latitude: 51 09N     Longitude: 000 11W

WEATHER
 
SELECT A DAY
Number of Records: 298,624;   Date Range: 7/1/96 - 11/22/14
 
SHARE

PRINT THIS DATA

[ ← Previous Day ]
WEATHER ALMANAC - FEBRUARY 11, 2013
[ Next Day → ]
[ °C ]   °F
Weather ElementAverageHighLow
Temperature33.9 °F35.6 °F (12:50 am)32 °F (2:20 am)
Dewpoint32.2 °F33.8 °F (12:50 am)32 °F (1:50 am)
Humidity93.5 %100 % (2:20 am)87 % (11:20 am)
Barometer29.49 in29.74 in (10:50 pm)29.27 in (12:50 am)
Wind Speed8 mph10.4 mph (5:50 am)
Wind Gust26.5 mph (8:50 pm)
Weather ElementAverage
Visibility2.8 mi
Wind DirectionNNE (38.9 °)

Weather ElementTotal
Precipitation---
Heating Degree Days31.2 (Base 65)
Averaged from 46 records on February 11, 2013
WEATHER CONDITIONS BREAKOUT
WIND DIRECTION BREAKOUT
WEATHER BY HOUR - FEBRUARY 11, 2013
[ °C ]   °F
Local TimeTemperatureDewpointHumidityBarometerVisibilityWind DirectionWind SpeedGust SpeedPrecipitationEventsConditions
12:50 AM35.6 °F33.8 °F93 %29.27 in5.0 miEast (80°)9.2 mphRain-SnowLight Rain
1:20 AM35.6 °F33.8 °F93 %29.27 in5.6 miEast (80°)9.2 mphRain-SnowLight Rain
1:50 AM33.8 °F32.0 °F93 %29.30 in2.2 miENE (60°)6.9 mphSnowLight Snow
2:20 AM32.0 °F32.0 °F100 %29.30 in2.2 miENE (60°)5.8 mphSnowLight Snow
2:50 AM32.0 °F32.0 °F100 %29.30 in1.6 miENE (70°)6.9 mphSnowLight Snow
3:20 AM32.0 °F32.0 °F100 %29.30 in1.4 miENE (70°)6.9 mphSnowLight Snow
3:50 AM32.0 °F32.0 °F100 %29.33 in3.1 miENE (70°)6.9 mphSnowLight Snow
4:20 AM32.0 °F32.0 °F100 %29.33 in2.8 miENE (70°)6.9 mphSnowLight Snow
4:50 AM32.0 °F32.0 °F100 %29.33 in2.2 miENE (60°)8.1 mphSnowLight Snow
5:20 AM32.0 °F32.0 °F100 %29.33 in1.7 miENE (70°)8.1 mphSnowLight Snow
5:50 AM32.0 °F32.0 °F100 %29.36 in1.6 miENE (60°)10.4 mphSnowLight Snow
6:20 AM32.0 °F32.0 °F100 %29.36 in1.6 miENE (70°)8.1 mphSnowLight Snow
6:50 AM33.8 °F32.0 °F93 %29.36 in3.1 miENE (60°)9.2 mphSnowLight Snow
7:20 AM33.8 °F32.0 °F93 %29.39 in3.7 miNE (50°)8.1 mphMostly Cloudy
7:50 AM33.8 °F32.0 °F93 %29.39 in3.1 miNE (50°)6.9 mphSnowLight Snow
8:20 AM33.8 °F32.0 °F93 %29.42 in2.2 miNE (40°)8.1 mphSnowLight Snow
8:50 AM33.8 °F32.0 °F93 %29.42 in2.2 miNE (40°)6.9 mphSnowLight Snow
9:20 AM33.8 °F32.0 °F93 %29.42 in1.2 miNE (50°)6.9 mphSnowLight Snow
9:50 AM33.8 °F32.0 °F93 %29.44 in0.9 miNE (40°)6.9 mphSnowLight Snow
10:20 AM33.8 °F32.0 °F93 %29.44 in1.6 miNE (40°)6.9 mphSnowLight Snow
10:50 AM33.8 °F32.0 °F93 %29.47 in1.9 miNE (40°)5.8 mphSnowLight Snow
11:20 AM35.6 °F32.0 °F87 %29.47 in1.4 miNE (40°)6.9 mphSnowLight Snow
11:50 AM35.6 °F32.0 °F87 %29.47 in3.7 miNE (40°)6.9 mphMostly Cloudy
12:20 PM35.6 °F32.0 °F87 %29.50 in4.3 miNNE (30°)8.1 mphMostly Cloudy
12:50 PM35.6 °F33.8 °F93 %29.50 in4.3 miNNE (30°)6.9 mphMostly Cloudy
1:20 PM35.6 °F33.8 °F93 %29.50 in3.1 miNNE (30°)8.1 mphRainLight Rain
1:50 PM35.6 °F33.8 °F93 %29.53 in5.6 miNNE (20°)6.9 mphMostly Cloudy
2:20 PM35.6 °F32.0 °F87 %29.53 in5.6 miNNE (20°)9.2 mphMostly Cloudy
2:50 PM35.6 °F32.0 °F87 %29.53 in5.0 miNNE (20°)9.2 mphMostly Cloudy
3:20 PM35.6 °F32.0 °F87 %29.56 inNorth (10°)8.1 mphLight Drizzle
3:50 PM33.8 °F32.0 °F93 %29.56 in2.2 miNNE (20°)8.1 mphRain-SnowLight Rain
4:20 PM33.8 °F32.0 °F93 %29.56 in1.9 miNNE (30°)8.1 mphRainLight Rain
4:50 PM33.8 °F32.0 °F93 %29.59 in2.2 miNNE (30°)8.1 mphRain-SnowLight Rain
5:20 PM33.8 °F32.0 °F93 %29.59 in2.5 miNNE (20°)8.1 mphRainLight Rain
5:50 PM33.8 °F32.0 °F93 %29.62 in2.8 miNNE (20°)8.1 mphRainLight Rain
6:20 PM33.8 °F32.0 °F93 %29.62 in3.7 miNNE (30°)8.1 mphMostly Cloudy
6:50 PM35.6 °F32.0 °F87 %29.65 in3.7 miNNE (20°)8.1 mphMostly Cloudy
7:20 PM33.8 °F32.0 °F93 %29.65 in2.8 miNNE (30°)9.2 mphRainLight Rain
7:50 PM33.8 °F32.0 °F93 %29.65 in3.1 miNorth (10°)8.1 mphRain-SnowLight Rain
8:20 PM33.8 °F32.0 °F93 %29.68 in1.9 miNNE (20°)9.2 mphRain-SnowLight Rain
8:50 PM33.8 °F32.0 °F93 %29.68 in2.5 miNorth (10°)10.4 mph26.5 mphMostly Cloudy
9:20 PM33.8 °F32.0 °F93 %29.68 inNorth (10°)9.2 mphHaze
9:50 PM33.8 °F32.0 °F93 %29.71 in2.5 miNorth (10°)9.2 mphRainLight Rain
10:50 PM33.8 °F32.0 °F93 %29.74 in2.8 miNNE (20°)9.2 mphHaze
11:20 PM33.8 °F32.0 °F93 %29.74 inNNE (20°)8.1 mphHaze
11:50 PM33.8 °F32.0 °F93 %29.74 inNNE (20°)10.4 mphHaze
Hourly data recorded from EGKK, located miles away from London, England







STORIES FROM OUR PARTNERS